Location: El Frío
(10.0713°N, 67.9111°W)
Time: 17:33:22
(UTC+00:00)

Cosmos 1076 Rocket - Pass Details

Date: 11 December 2025
Orbit: 582 x 603 km, 82.5° (Epoch: 20 January)

Event Time Altitude Azimuth Distance (km) Brightness Sun altitude
Rises 22:37:57 0° 5° (N) 2,841 6.7 -6.8°
Reaches altitude 10° 22:40:13 10° 10° (N) 1,940 5.8 -7.3°
Maximum altitude 22:44:22 48° 85° (E) 785 3.7 -8.3°
Drops below altitude 10° 22:48:31 10° 160° (SSE) 1,940 6.1 -9.2°
Sets 22:50:46 0° 166° (SSE) 2,842 7.1 -9.7°
